| time (UTC) | temp F | wind direction | speed MPH | gust MPH | rain 1hr in | rain 24hr in | rain mn in | humidity % | barometer mb |
| 20260505225439 | 83 | 183 | 1.0 | 5.0 | 0.00 | 0.00 | 0.00 | 70 | 1005.8 |
| 20260505224937 | 83 | 0.0 | 4.0 | 0.00 | 0.00 | 0.00 | 70 | 1005.7 | |
| 20260505224435 | 83 | 158 | 1.0 | 5.0 | 0.00 | 0.00 | 0.00 | 70 | 1005.7 |
| 20260505223933 | 83 | 0.0 | 6.0 | 0.00 | 0.00 | 0.00 | 70 | 1005.7 | |
| 20260505223429 | 83 | 190 | 2.0 | 7.0 | 0.00 | 0.00 | 0.00 | 71 | 1005.8 |
| 20260505222927 | 83 | 188 | 2.0 | 8.0 | 0.00 | 0.00 | 0.00 | 70 | 1005.9 |
| 20260505222425 | 83 | 191 | 1.0 | 8.0 | 0.00 | 0.00 | 0.00 | 70 | 1005.8 |
| 20260505221923 | 83 | 167 | 1.0 | 8.0 | 0.00 | 0.00 | 0.00 | 70 | 1005.7 |
| 20260505221419 | 83 | 1.0 | 8.0 | 0.00 | 0.00 | 0.00 | 70 | 1005.6 | |
| 20260505220917 | 83 | 178 | 1.0 | 8.0 | 0.00 | 0.00 | 0.00 | 71 | 1005.7 |
| 20260505220413 | 83 | 148 | 1.0 | 8.0 | 0.00 | 0.00 | 0.00 | 70 | 1005.7 |
| 20260505215911 | 83 | 166 | 1.0 | 10.0 | 0.00 | 0.00 | 0.00 | 70 | 1005.7 |
| 20260505215409 | 84 | 191 | 4.0 | 11.0 | 0.00 | 0.00 | 0.00 | 68 | 1005.8 |
| 20260505214907 | 84 | 158 | 2.0 | 9.0 | 0.00 | 0.00 | 0.00 | 70 | 1005.9 |
| 20260505214403 | 84 | 156 | 2.0 | 11.0 | 0.00 | 0.00 | 0.00 | 69 | 1006.0 |
| 20260505213901 | 84 | 194 | 1.0 | 11.0 | 0.00 | 0.00 | 0.00 | 70 | 1005.9 |
| 20260505213359 | 84 | 149 | 1.0 | 6.0 | 0.00 | 0.00 | 0.00 | 69 | 1005.9 |
| 20260505212857 | 84 | 168 | 3.0 | 8.0 | 0.00 | 0.00 | 0.00 | 69 | 1006.1 |
| 20260505212352 | 84 | 191 | 1.0 | 8.0 | 0.00 | 0.00 | 0.00 | 69 | 1006.2 |
| 20260505211850 | 84 | 182 | 1.0 | 7.0 | 0.00 | 0.00 | 0.00 | 69 | 1006.2 |
| 20260505211349 | 84 | 180 | 2.0 | 7.0 | 0.00 | 0.00 | 0.00 | 70 | 1006.3 |
| 20260505210846 | 84 | 0.0 | 7.0 | 0.00 | 0.00 | 0.00 | 71 | 1006.4 | |
| 20260505210342 | 84 | 0.0 | 6.0 | 0.00 | 0.00 | 0.00 | 71 | 1006.5 | |
| 20260505205840 | 83 | 1.0 | 5.0 | 0.00 | 0.00 | 0.00 | 71 | 1006.5 | |
| 20260505205338 | 83 | 192 | 1.0 | 8.0 | 0.00 | 0.00 | 0.00 | 71 | 1006.5 |
| 20260505204836 | 84 | 187 | 2.0 | 8.0 | 0.00 | 0.00 | 0.00 | 68 | 1006.5 |
| 20260505204332 | 85 | 192 | 1.0 | 6.0 | 0.00 | 0.00 | 0.00 | 69 | 1006.7 |
| 20260505203831 | 84 | 0.0 | 9.0 | 0.00 | 0.00 | 0.00 | 71 | 1006.5 | |
| 20260505203328 | 84 | 195 | 2.0 | 12.0 | 0.00 | 0.00 | 0.00 | 70 | 1006.5 |
| 20260505202826 | 84 | 0.0 | 12.0 | 0.00 | 0.00 | 0.00 | 69 | 1006.8 | |
| 20260505202322 | 84 | 178 | 1.0 | 7.0 | 0.00 | 0.00 | 0.00 | 69 | 1006.8 |
| 20260505201820 | 84 | 187 | 1.0 | 8.0 | 0.00 | 0.00 | 0.00 | 69 | 1006.9 |
| 20260505201318 | 83 | 184 | 2.0 | 10.0 | 0.00 | 0.00 | 0.00 | 68 | 1007.1 |
| 20260505200816 | 83 | 184 | 2.0 | 10.0 | 0.00 | 0.00 | 0.00 | 68 | 1007.1 |
| 20260505200312 | 83 | 177 | 1.0 | 10.0 | 0.00 | 0.00 | 0.00 | 70 | 1007.1 |
| 20260505195810 | 83 | 185 | 2.0 | 10.0 | 0.00 | 0.00 | 0.00 | 69 | 1007.2 |
| 20260505195308 | 83 | 176 | 3.0 | 10.0 | 0.00 | 0.00 | 0.00 | 69 | 1007.2 |
| 20260505194806 | 83 | 172 | 3.0 | 10.0 | 0.00 | 0.00 | 0.00 | 70 | 1007.1 |
| 20260505194302 | 83 | 162 | 3.0 | 10.0 | 0.00 | 0.00 | 0.00 | 70 | 1007.3 |
| 20260505193800 | 83 | 189 | 1.0 | 8.0 | 0.00 | 0.00 | 0.00 | 71 | 1007.4 |
| 20260505193256 | 82 | 180 | 2.0 | 8.0 | 0.00 | 0.00 | 0.00 | 71 | 1007.5 |
| 20260505192754 | 82 | 1.0 | 8.0 | 0.00 | 0.00 | 0.00 | 71 | 1007.6 | |
| 20260505192254 | 82 | 181 | 2.0 | 8.0 | 0.00 | 0.00 | 0.00 | 72 | 1007.6 |
| 20260505191752 | 82 | 182 | 2.0 | 8.0 | 0.00 | 0.00 | 0.00 | 70 | 1007.6 |
| 20260505191248 | 81 | 190 | 2.0 | 11.0 | 0.00 | 0.00 | 0.00 | 71 | 1007.6 |
| 20260505190746 | 82 | 179 | 2.0 | 11.0 | 0.00 | 0.00 | 0.00 | 69 | 1007.7 |
| 20260505190242 | 82 | 159 | 1.0 | 8.0 | 0.00 | 0.00 | 0.00 | 71 | 1007.7 |
| 20260505185740 | 82 | 157 | 1.0 | 8.0 | 0.00 | 0.00 | 0.00 | 73 | 1007.8 |
| 20260505185238 | 81 | 197 | 1.0 | 8.0 | 0.00 | 0.00 | 0.00 | 71 | 1007.8 |
| 20260505184736 | 81 | 166 | 2.0 | 8.0 | 0.00 | 0.00 | 0.00 | 71 | 1007.9 |
| 20260505184232 | 81 | 164 | 1.0 | 5.0 | 0.00 | 0.00 | 0.00 | 73 | 1008.1 |
| 20260505183730 | 81 | 1.0 | 7.0 | 0.00 | 0.00 | 0.00 | 73 | 1008.1 | |
| 20260505183228 | 81 | 190 | 1.0 | 7.0 | 0.00 | 0.00 | 0.00 | 74 | 1008.2 |
| 20260505182726 | 80 | 0.0 | 5.0 | 0.00 | 0.00 | 0.00 | 75 | 1008.3 | |
| 20260505182222 | 80 | 186 | 1.0 | 7.0 | 0.00 | 0.00 | 0.00 | 74 | 1008.4 |
| 20260505181720 | 79 | 1.0 | 7.0 | 0.00 | 0.00 | 0.00 | 74 | 1008.5 | |
| 20260505181218 | 79 | 1.0 | 6.0 | 0.00 | 0.00 | 0.00 | 76 | 1008.5 | |
| 20260505180716 | 79 | 175 | 2.0 | 11.0 | 0.00 | 0.00 | 0.00 | 76 | 1008.5 |
| 20260505180212 | 78 | 161 | 2.0 | 11.0 | 0.00 | 0.00 | 0.00 | 76 | 1008.5 |
| 20260505175710 | 78 | 196 | 1.0 | 8.0 | 0.00 | 0.00 | 0.00 | 77 | 1008.5 |
| 20260505175208 | 78 | 0.0 | 6.0 | 0.00 | 0.00 | 0.00 | 76 | 1008.7 | |
| 20260505174706 | 78 | 212 | 1.0 | 9.0 | 0.00 | 0.00 | 0.00 | 77 | 1008.9 |
| 20260505174202 | 78 | 201 | 1.0 | 9.0 | 0.00 | 0.00 | 0.00 | 77 | 1008.9 |
| 20260505173700 | 77 | 174 | 1.0 | 5.0 | 0.00 | 0.00 | 0.00 | 79 | 1008.9 |
| 20260505173158 | 76 | 190 | 1.0 | 6.0 | 0.00 | 0.00 | 0.00 | 79 | 1008.8 |
| 20260505172656 | 76 | 0.0 | 5.0 | 0.00 | 0.00 | 0.00 | 79 | 1008.8 | |
| 20260505172152 | 76 | 1.0 | 7.0 | 0.00 | 0.00 | 0.00 | 80 | 1008.9 | |
| 20260505171650 | 76 | 0.0 | 7.0 | 0.00 | 0.00 | 0.00 | 81 | 1008.9 | |
| 20260505171148 | 76 | 172 | 2.0 | 10.0 | 0.00 | 0.00 | 0.00 | 82 | 1008.9 |
| 20260505170646 | 75 | 175 | 1.0 | 10.0 | 0.00 | 0.00 | 0.00 | 82 | 1008.8 |
| 20260505170142 | 75 | 186 | 1.0 | 6.0 | 0.00 | 0.00 | 0.00 | 83 | 1009.0 |
| 20260505165640 | 74 | 0.0 | 7.0 | 0.00 | 0.00 | 0.00 | 83 | 1009.0 | |
| 20260505165138 | 74 | 181 | 1.0 | 7.0 | 0.00 | 0.00 | 0.00 | 83 | 1009.0 |
| 20260505164636 | 74 | 0.0 | 5.0 | 0.00 | 0.00 | 0.00 | 84 | 1009.0 | |
| 20260505164132 | 74 | 1.0 | 5.0 | 0.00 | 0.00 | 0.00 | 83 | 1009.0 | |
| 20260505163630 | 74 | 0.0 | 5.0 | 0.00 | 0.00 | 0.00 | 84 | 1009.0 | |
| 20260505163128 | 74 | 0.0 | 5.0 | 0.00 | 0.00 | 0.00 | 84 | 1009.1 | |
| 20260505162626 | 73 | 0.0 | 11.0 | 0.00 | 0.00 | 0.00 | 84 | 1009.0 | |
| 20260505162122 | 73 | 187 | 1.0 | 11.0 | 0.00 | 0.00 | 0.00 | 85 | 1009.1 |
| 20260505161620 | 73 | 0.0 | 5.0 | 0.00 | 0.00 | 0.00 | 85 | 1009.1 | |
| 20260505161116 | 73 | 0.0 | 5.0 | 0.00 | 0.00 | 0.00 | 85 | 1009.1 | |
| 20260505160614 | 73 | 0.0 | 6.0 | 0.00 | 0.00 | 0.00 | 84 | 1008.9 | |
| 20260505160112 | 73 | 195 | 1.0 | 6.0 | 0.00 | 0.00 | 0.00 | 85 | 1008.9 |
| 20260505153056 | 72 | 0.0 | 5.0 | 0.00 | 0.00 | 0.00 | 87 | 1009.0 | |
| 20260505152554 | 72 | 0.0 | 5.0 | 0.00 | 0.00 | 0.00 | 87 | 1009.0 | |
| 20260505152052 | 72 | 1.0 | 5.0 | 0.00 | 0.00 | 0.00 | 87 | 1009.0 | |
| 20260505151550 | 72 | 1.0 | 6.0 | 0.00 | 0.00 | 0.00 | 87 | 1009.0 | |
| 20260505151046 | 72 | 1.0 | 6.0 | 0.00 | 0.00 | 0.00 | 87 | 1008.9 | |
| 20260505150544 | 72 | 188 | 1.0 | 4.0 | 0.00 | 0.00 | 0.00 | 87 | 1008.9 |
| 20260505140514 | 71 | 0.0 | 7.0 | 0.00 | 0.00 | 0.00 | 87 | 1008.4 | |
| 20260505124936 | 70 | 0.0 | 7.0 | 0.00 | 0.00 | 0.00 | 88 | 1007.9 | |
| 20260505124434 | 70 | 160 | 1.0 | 7.0 | 0.00 | 0.00 | 0.00 | 88 | 1007.9 |
| 20260505123930 | 70 | 183 | 1.0 | 10.0 | 0.00 | 0.00 | 0.00 | 88 | 1007.8 |
| 20260505123428 | 70 | 0.0 | 10.0 | 0.00 | 0.00 | 0.00 | 88 | 1007.7 | |
| 20260505122926 | 70 | 176 | 2.0 | 8.0 | 0.00 | 0.00 | 0.00 | 88 | 1007.5 |
| 20260505122424 | 70 | 1.0 | 6.0 | 0.00 | 0.00 | 0.00 | 88 | 1007.4 | |
| 20260505121920 | 70 | 1.0 | 7.0 | 0.00 | 0.00 | 0.00 | 88 | 1007.3 | |
| 20260505121419 | 70 | 184 | 2.0 | 8.0 | 0.00 | 0.00 | 0.00 | 88 | 1007.2 |
| 20260505120916 | 70 | 170 | 2.0 | 8.0 | 0.00 | 0.00 | 0.00 | 88 | 1007.2 |
| 20260505120414 | 70 | 0.0 | 6.0 | 0.00 | 0.00 | 0.00 | 89 | 1007.2 | |
| 20260505115910 | 70 | 187 | 1.0 | 7.0 | 0.00 | 0.00 | 0.00 | 89 | 1007.1 |
| 20260505115408 | 70 | 170 | 1.0 | 9.0 | 0.00 | 0.00 | 0.00 | 88 | 1007.0 |
| 20260505114906 | 70 | 147 | 2.0 | 9.0 | 0.00 | 0.00 | 0.00 | 88 | 1006.9 |
| 20260505114404 | 70 | 182 | 1.0 | 6.0 | 0.00 | 0.00 | 0.00 | 88 | 1006.9 |
| 20260505113900 | 70 | 208 | 1.0 | 7.0 | 0.00 | 0.00 | 0.00 | 88 | 1006.9 |
| 20260505113358 | 70 | 189 | 2.0 | 8.0 | 0.00 | 0.00 | 0.00 | 87 | 1006.9 |
| 20260505112856 | 70 | 175 | 2.0 | 9.0 | 0.00 | 0.00 | 0.00 | 87 | 1006.9 |
| 20260505112354 | 70 | 194 | 3.0 | 8.0 | 0.00 | 0.00 | 0.00 | 87 | 1006.9 |
| 20260505111850 | 70 | 173 | 1.0 | 7.0 | 0.00 | 0.00 | 0.00 | 87 | 1006.9 |
| 20260505111348 | 70 | 168 | 2.0 | 9.0 | 0.00 | 0.00 | 0.00 | 87 | 1006.8 |
| 20260505110846 | 70 | 180 | 2.0 | 9.0 | 0.00 | 0.00 | 0.00 | 87 | 1006.9 |
| 20260505110344 | 70 | 181 | 3.0 | 9.0 | 0.00 | 0.00 | 0.00 | 87 | 1006.9 |
| 20260505101819 | 70 | 0.0 | 7.0 | 0.00 | 0.00 | 0.00 | 87 | 1007.2 | |
| 20260505101318 | 70 | 0.0 | 6.0 | 0.00 | 0.00 | 0.00 | 87 | 1007.2 | |
| 20260505100813 | 70 | 199 | 2.0 | 6.0 | 0.00 | 0.00 | 0.00 | 87 | 1007.2 |
| 20260505100311 | 70 | 0.0 | 8.0 | 0.00 | 0.00 | 0.00 | 87 | 1007.2 | |
| 20260505095809 | 70 | 178 | 2.0 | 8.0 | 0.00 | 0.00 | 0.00 | 87 | 1007.4 |
| 20260505095307 | 70 | 186 | 1.0 | 7.0 | 0.00 | 0.00 | 0.00 | 87 | 1007.4 |
| 20260505094803 | 70 | 184 | 2.0 | 7.0 | 0.00 | 0.00 | 0.00 | 87 | 1007.4 |
| 20260505094301 | 70 | 188 | 1.0 | 4.0 | 0.00 | 0.00 | 0.00 | 87 | 1007.4 |
| 20260505093759 | 70 | 0.0 | 4.0 | 0.00 | 0.00 | 0.00 | 87 | 1007.5 | |
| 20260505093257 | 70 | 0.0 | 4.0 | 0.00 | 0.00 | 0.00 | 87 | 1007.6 | |
| 20260505092753 | 70 | 0.0 | 6.0 | 0.00 | 0.00 | 0.00 | 87 | 1007.5 | |
| 20260505092251 | 70 | 1.0 | 6.0 | 0.00 | 0.00 | 0.00 | 86 | 1007.4 | |
| 20260505091749 | 70 | 1.0 | 9.0 | 0.00 | 0.00 | 0.00 | 86 | 1007.6 | |
| 20260505091247 | 70 | 190 | 1.0 | 9.0 | 0.00 | 0.00 | 0.00 | 86 | 1007.5 |
| 20260505090743 | 70 | 178 | 2.0 | 7.0 | 0.00 | 0.00 | 0.00 | 86 | 1007.7 |
| 20260505090241 | 70 | 187 | 1.0 | 7.0 | 0.00 | 0.00 | 0.00 | 86 | 1007.7 |
| 20260505085739 | 70 | 0.0 | 7.0 | 0.00 | 0.00 | 0.00 | 86 | 1007.6 | |
| 20260505085238 | 70 | 190 | 2.0 | 7.0 | 0.00 | 0.00 | 0.00 | 86 | 1007.6 |
| 20260505084733 | 70 | 170 | 1.0 | 11.0 | 0.00 | 0.00 | 0.00 | 86 | 1007.7 |
| 20260505084231 | 70 | 162 | 2.0 | 11.0 | 0.00 | 0.00 | 0.00 | 86 | 1007.7 |
| 20260505083729 | 70 | 1.0 | 7.0 | 0.00 | 0.00 | 0.00 | 85 | 1007.7 | |
| 20260505083227 | 70 | 182 | 1.0 | 7.0 | 0.00 | 0.00 | 0.00 | 85 | 1007.8 |
| 20260505082723 | 70 | 0.0 | 6.0 | 0.00 | 0.00 | 0.00 | 85 | 1007.8 | |
| 20260505082221 | 70 | 0.0 | 6.0 | 0.00 | 0.00 | 0.00 | 85 | 1007.9 | |
| 20260505081717 | 70 | 192 | 1.0 | 11.0 | 0.00 | 0.00 | 0.00 | 85 | 1008.0 |
| 20260505081215 | 70 | 172 | 2.0 | 7.0 | 0.00 | 0.00 | 0.00 | 85 | 1008.1 |
| 20260505080713 | 70 | 182 | 1.0 | 10.0 | 0.00 | 0.00 | 0.00 | 85 | 1008.1 |
| 20260505080211 | 70 | 165 | 2.0 | 10.0 | 0.00 | 0.00 | 0.00 | 85 | 1008.1 |
| 20260505075707 | 70 | 161 | 2.0 | 10.0 | 0.00 | 0.00 | 0.00 | 85 | 1008.2 |
| 20260505075205 | 70 | 183 | 2.0 | 10.0 | 0.00 | 0.00 | 0.00 | 85 | 1008.1 |
| 20260505074703 | 70 | 172 | 1.0 | 8.0 | 0.00 | 0.00 | 0.00 | 85 | 1008.1 |
| 20260505074201 | 71 | 0.0 | 10.0 | 0.00 | 0.00 | 0.00 | 85 | 1008.2 | |
| 20260505073657 | 71 | 189 | 1.0 | 13.0 | 0.00 | 0.00 | 0.00 | 85 | 1008.2 |
| 20260505073155 | 70 | 189 | 5.0 | 13.0 | 0.00 | 0.00 | 0.00 | 85 | 1008.2 |
| 20260505072653 | 70 | 181 | 2.0 | 10.0 | 0.00 | 0.00 | 0.00 | 85 | 1008.2 |
| 20260505072151 | 71 | 179 | 2.0 | 9.0 | 0.00 | 0.00 | 0.00 | 85 | 1008.3 |
| 20260505071647 | 71 | 173 | 1.0 | 8.0 | 0.00 | 0.00 | 0.00 | 85 | 1008.5 |
| 20260505071145 | 71 | 186 | 2.0 | 8.0 | 0.00 | 0.00 | 0.00 | 85 | 1008.6 |
| 20260505070643 | 71 | 177 | 2.0 | 7.0 | 0.00 | 0.00 | 0.00 | 84 | 1008.7 |
| 20260505070141 | 71 | 190 | 2.0 | 8.0 | 0.00 | 0.00 | 0.00 | 84 | 1008.8 |
| 20260505065637 | 71 | 191 | 2.0 | 8.0 | 0.00 | 0.00 | 0.00 | 84 | 1008.8 |
| 20260505065135 | 71 | 172 | 1.0 | 9.0 | 0.00 | 0.00 | 0.00 | 84 | 1008.8 |
| 20260505064633 | 71 | 203 | 2.0 | 10.0 | 0.00 | 0.00 | 0.00 | 84 | 1008.9 |
| 20260505064131 | 71 | 182 | 2.0 | 9.0 | 0.00 | 0.00 | 0.00 | 84 | 1008.9 |
| 20260505063627 | 71 | 192 | 2.0 | 9.0 | 0.00 | 0.00 | 0.00 | 84 | 1008.9 |
| 20260505063125 | 71 | 187 | 2.0 | 12.0 | 0.00 | 0.00 | 0.00 | 84 | 1008.9 |
| 20260505062623 | 71 | 176 | 2.0 | 12.0 | 0.00 | 0.00 | 0.00 | 84 | 1009.0 |
| 20260505062121 | 71 | 196 | 1.0 | 9.0 | 0.00 | 0.00 | 0.00 | 83 | 1009.0 |
| 20260505061617 | 71 | 192 | 2.0 | 9.0 | 0.00 | 0.00 | 0.00 | 83 | 1009.1 |
| 20260505061115 | 71 | 193 | 1.0 | 8.0 | 0.00 | 0.00 | 0.00 | 83 | 1009.2 |
| 20260505060613 | 71 | 161 | 1.0 | 8.0 | 0.00 | 0.00 | 0.00 | 83 | 1009.2 |
| 20260505060111 | 71 | 189 | 2.0 | 8.0 | 0.00 | 0.00 | 0.00 | 83 | 1009.2 |
| 20260505055607 | 71 | 157 | 1.0 | 9.0 | 0.00 | 0.00 | 0.00 | 83 | 1009.2 |
| 20260505055105 | 71 | 189 | 1.0 | 9.0 | 0.00 | 0.00 | 0.00 | 83 | 1009.2 |
| 20260505054603 | 71 | 176 | 2.0 | 9.0 | 0.00 | 0.00 | 0.00 | 83 | 1009.2 |
| 20260505054059 | 71 | 0.0 | 6.0 | 0.00 | 0.00 | 0.00 | 83 | 1009.3 | |
| 20260505053557 | 71 | 182 | 1.0 | 10.0 | 0.00 | 0.00 | 0.00 | 83 | 1009.2 |
| 20260505053055 | 71 | 195 | 1.0 | 10.0 | 0.00 | 0.00 | 0.00 | 83 | 1009.1 |
| 20260505052551 | 72 | 176 | 3.0 | 9.0 | 0.00 | 0.00 | 0.00 | 83 | 1009.1 |
| 20260505052049 | 72 | 181 | 1.0 | 12.0 | 0.00 | 0.00 | 0.00 | 83 | 1009.1 |
| 20260505051547 | 72 | 174 | 4.0 | 12.0 | 0.00 | 0.00 | 0.00 | 83 | 1009.2 |
| 20260505051045 | 72 | 186 | 1.0 | 11.0 | 0.00 | 0.00 | 0.00 | 83 | 1009.3 |
| 20260505050541 | 72 | 215 | 1.0 | 9.0 | 0.00 | 0.00 | 0.00 | 83 | 1009.1 |
| 20260505041517 | 73 | 188 | 1.0 | 10.0 | 0.00 | 0.00 | 0.00 | 80 | 1009.1 |
| 20260505041015 | 73 | 185 | 1.0 | 10.0 | 0.00 | 0.00 | 0.00 | 80 | 1009.1 |
| 20260505040511 | 73 | 177 | 1.0 | 11.0 | 0.00 | 0.00 | 0.00 | 80 | 1009.1 |
| 20260505040009 | 73 | 184 | 2.0 | 11.0 | 0.00 | 0.00 | 0.00 | 80 | 1009.1 |
| 20260505035507 | 73 | 1.0 | 6.0 | 0.00 | 0.00 | 0.00 | 79 | 1009.1 | |
| 20260505035005 | 73 | 180 | 1.0 | 7.0 | 0.00 | 0.00 | 0.00 | 79 | 1009.1 |
| 20260505034501 | 73 | 184 | 1.0 | 10.0 | 0.00 | 0.00 | 0.00 | 78 | 1009.1 |
| 20260505033959 | 73 | 187 | 1.0 | 10.0 | 0.00 | 0.00 | 0.00 | 78 | 1009.0 |
| 20260505033457 | 74 | 172 | 1.0 | 11.0 | 0.00 | 0.00 | 0.00 | 78 | 1009.0 |
| 20260505032955 | 74 | 183 | 2.0 | 11.0 | 0.00 | 0.00 | 0.00 | 78 | 1009.1 |
| 20260505032451 | 74 | 178 | 1.0 | 10.0 | 0.00 | 0.00 | 0.00 | 78 | 1009.1 |
| 20260505031949 | 74 | 207 | 1.0 | 10.0 | 0.00 | 0.00 | 0.00 | 77 | 1009.0 |
| 20260505031447 | 74 | 0.0 | 5.0 | 0.00 | 0.00 | 0.00 | 77 | 1009.1 | |
| 20260505030945 | 74 | 153 | 1.0 | 10.0 | 0.00 | 0.00 | 0.00 | 76 | 1009.0 |
| 20260505030441 | 74 | 1.0 | 10.0 | 0.00 | 0.00 | 0.00 | 76 | 1008.9 | |
| 20260505025939 | 74 | 184 | 2.0 | 8.0 | 0.00 | 0.00 | 0.00 | 76 | 1009.0 |
| 20260505025437 | 74 | 0.0 | 10.0 | 0.00 | 0.00 | 0.00 | 75 | 1008.9 | |
| 20260505024935 | 75 | 188 | 1.0 | 10.0 | 0.00 | 0.00 | 0.00 | 74 | 1009.0 |
| 20260505024431 | 75 | 1.0 | 7.0 | 0.00 | 0.00 | 0.00 | 73 | 1009.0 | |
| 20260505023929 | 75 | 0.0 | 6.0 | 0.00 | 0.00 | 0.00 | 72 | 1009.0 | |
| 20260505023427 | 75 | 0.0 | 6.0 | 0.00 | 0.00 | 0.00 | 72 | 1008.9 | |
| 20260505022925 | 75 | 181 | 1.0 | 6.0 | 0.00 | 0.00 | 0.00 | 71 | 1009.0 |
| 20260505022421 | 75 | 0.0 | 5.0 | 0.00 | 0.00 | 0.00 | 71 | 1008.9 | |
| 20260505021919 | 75 | 182 | 1.0 | 7.0 | 0.00 | 0.00 | 0.00 | 71 | 1009.0 |
| 20260505021415 | 75 | 189 | 1.0 | 7.0 | 0.00 | 0.00 | 0.00 | 71 | 1009.0 |
| 20260505020913 | 75 | 1.0 | 7.0 | 0.00 | 0.00 | 0.00 | 70 | 1008.8 | |
| 20260505020410 | 75 | 125 | 1.0 | 7.0 | 0.00 | 0.00 | 0.00 | 70 | 1008.7 |
| 20260505015908 | 75 | 0.0 | 4.0 | 0.00 | 0.00 | 0.00 | 70 | 1008.7 | |
| 20260505015404 | 75 | 189 | 1.0 | 4.0 | 0.00 | 0.00 | 0.00 | 69 | 1008.6 |
| 20260505014902 | 76 | 0.0 | 4.0 | 0.00 | 0.00 | 0.00 | 69 | 1008.7 | |
| 20260505014400 | 76 | 0.0 | 4.0 | 0.00 | 0.00 | 0.00 | 68 | 1008.7 | |
| 20260505013858 | 76 | 0.0 | 5.0 | 0.00 | 0.00 | 0.00 | 68 | 1008.8 | |
| 20260505013354 | 76 | 174 | 1.0 | 5.0 | 0.00 | 0.00 | 0.00 | 68 | 1008.9 |
| 20260505012852 | 76 | 0.0 | 3.0 | 0.00 | 0.00 | 0.00 | 67 | 1008.9 | |
| 20260505012350 | 76 | 0.0 | 5.0 | 0.00 | 0.00 | 0.00 | 67 | 1008.8 | |
| 20260505011848 | 76 | 0.0 | 3.0 | 0.00 | 0.00 | 0.00 | 66 | 1008.8 | |
| 20260505011344 | 77 | 0.0 | 3.0 | 0.00 | 0.00 | 0.00 | 65 | 1008.8 | |
| 20260505010842 | 77 | 0.0 | 3.0 | 0.00 | 0.00 | 0.00 | 65 | 1008.8 | |
| 20260505010340 | 77 | 0.0 | 6.0 | 0.00 | 0.00 | 0.00 | 65 | 1008.8 | |
| 20260505005838 | 77 | 192 | 1.0 | 6.0 | 0.00 | 0.00 | 0.00 | 64 | 1008.7 |
| 20260505005334 | 77 | 189 | 1.0 | 16.0 | 0.00 | 0.00 | 0.00 | 64 | 1008.7 |
| 20260505004832 | 78 | 184 | 2.0 | 16.0 | 0.00 | 0.00 | 0.00 | 64 | 1008.7 |
| 20260505004330 | 78 | 196 | 1.0 | 7.0 | 0.00 | 0.00 | 0.00 | 64 | 1008.7 |
| 20260505003828 | 78 | 183 | 1.0 | 7.0 | 0.00 | 0.00 | 0.00 | 64 | 1008.8 |
| 20260505003324 | 78 | 1.0 | 7.0 | 0.00 | 0.00 | 0.00 | 64 | 1008.8 | |
| 20260505002824 | 78 | 178 | 1.0 | 12.0 | 0.00 | 0.00 | 0.00 | 63 | 1008.7 |
| 20260505002320 | 79 | 184 | 3.0 | 12.0 | 0.00 | 0.00 | 0.00 | 63 | 1008.6 |
| 20260505001818 | 79 | 193 | 1.0 | 12.0 | 0.00 | 0.00 | 0.00 | 62 | 1008.6 |
| 20260505001314 | 79 | 186 | 3.0 | 13.0 | 0.00 | 0.00 | 0.00 | 62 | 1008.6 |
| 20260505000812 | 79 | 174 | 2.0 | 12.0 | 0.00 | 0.00 | 0.00 | 63 | 1008.6 |
| 20260505000310 | 79 | 0.0 | 9.0 | 0.00 | 0.00 | 0.00 | 62 | 1008.5 | |
| 20260504235808 | 80 | 172 | 1.0 | 7.0 | 0.00 | 0.00 | 0.00 | 61 | 1008.6 |
| 20260504235305 | 80 | 158 | 1.0 | 9.0 | 0.00 | 0.00 | 0.00 | 62 | 1008.6 |
| 20260504234802 | 80 | 163 | 1.0 | 9.0 | 0.00 | 0.00 | 0.00 | 62 | 1008.6 |
| 20260504234300 | 80 | 161 | 3.0 | 12.0 | 0.00 | 0.00 | 0.00 | 61 | 1008.7 |
| 20260504233756 | 80 | 166 | 2.0 | 10.0 | 0.00 | 0.00 | 0.00 | 61 | 1008.8 |
| 20260504233254 | 80 | 168 | 3.0 | 14.0 | 0.00 | 0.00 | 0.00 | 61 | 1008.8 |
| 20260504232752 | 80 | 187 | 2.0 | 14.0 | 0.00 | 0.00 | 0.00 | 60 | 1009.0 |
| 20260504232248 | 80 | 187 | 1.0 | 11.0 | 0.00 | 0.00 | 0.00 | 61 | 1009.0 |
| 20260504231746 | 80 | 172 | 2.0 | 11.0 | 0.00 | 0.00 | 0.00 | 61 | 1009.0 |
| 20260504231244 | 81 | 178 | 3.0 | 11.0 | 0.00 | 0.00 | 0.00 | 60 | 1008.9 |
| 20260504230742 | 80 | 175 | 2.0 | 11.0 | 0.00 | 0.00 | 0.00 | 61 | 1008.9 |
| 20260504230238 | 81 | 167 | 2.0 | 11.0 | 0.00 | 0.00 | 0.00 | 60 | 1009.1 |